Theta_e
327 320 332 321 301 299 294 299 304 303 301 307 307 303 307 314 310 303 332 338 341 343 346 347 349 350 350 349 348 346 345 343 343 344 346 346 347 347 345 344 344 340 338 337 336 335 335 336 336
320 323 325 315 296 290 292 303 301 303 306 308 308 305 307 313 323 327 330 340 342 343 345 345 346 349 350 349 348 346 346 345 345 346 347 348 347 346 345 343 343 340 338 336 335 333 333 334 333
317 329 314 307 299 293 293 301 304 307 308 307 304 316 317 318 324 330 335 341 342 342 344 344 345 349 349 348 347 346 347 346 347 347 346 346 346 345 344 342 341 338 337 337 336 334 332 331 332
312 313 311 301 299 298 298 302 305 304 308 309 308 315 321 329 327 333 338 340 339 340 342 342 346 349 348 347 346 346 347 348 347 347 346 346 345 345 343 342 341 338 335 336 336 335 334 332 331
310 308 297 298 298 300 303 306 308 305 307 308 311 313 317 328 334 335 336 338 337 338 340 342 344 346 347 346 347 346 346 347 346 346 346 346 345 344 342 340 339 338 336 335 335 334 333 331 328
307 305 295 294 298 302 305 308 307 305 307 310 312 316 318 327 333 333 334 333 336 337 340 341 337 340 343 345 346 345 344 345 346 345 345 345 344 343 341 338 336 336 337 337 335 333 330 328 326
305 300 296 297 296 299 303 308 304 306 307 307 315 313 319 325 333 334 332 333 335 338 339 340 340 338 337 339 340 341 342 342 343 343 343 342 341 341 340 337 336 334 333 332 330 329 328 326 323
307 303 297 298 296 296 304 306 308 307 306 316 321 312 313 324 334 334 332 332 334 336 338 338 339 339 338 338 333 335 337 338 338 337 335 333 333 332 332 330 333 333 331 330 329 327 326 325 324
308 297 293 294 296 297 303 302 308 313 307 314 323 318 323 332 336 333 330 331 332 335 335 335 336 336 336 335 331 331 331 332 330 329 327 325 324 324 324 326 331 333 331 329 328 326 326 325 324
299 294 294 299 300 301 303 303 307 308 308 310 320 327 330 333 333 328 327 326 329 330 331 333 335 336 335 336 334 334 331 332 328 326 325 324 323 324 325 323 327 329 328 329 327 325 324 321 316
294 291 298 300 302 305 303 303 310 307 304 306 313 322 327 330 330 328 328 328 328 329 330 333 334 336 335 334 334 333 331 328 326 323 323 322 323 323 323 321 321 320 320 320 322 319 317 316 316
290 294 296 299 302 304 303 304 303 308 306 310 308 324 326 326 328 329 328 328 326 328 330 334 335 335 333 333 331 330 328 326 324 323 324 321 322 321 320 319 318 318 318 315 317 317 318 316 317
290 292 295 298 300 302 305 303 303 307 311 312 311 319 323 325 326 330 331 330 327 327 330 332 334 334 332 331 329 328 326 326 325 325 324 323 322 320 320 319 318 316 316 316 317 318 318 317 317
291 292 292 294 295 298 299 301 305 305 311 310 309 320 321 321 320 326 330 329 327 326 328 329 333 333 332 331 329 328 326 324 323 323 323 323 322 320 320 320 320 318 316 318 318 317 317 316 318
291 288 290 292 294 295 300 298 300 306 310 309 308 315 322 323 326 326 329 330 327 326 326 325 331 332 332 331 330 329 328 326 323 323 323 323 322 321 321 320 319 319 318 319 318 318 317 317 321
286 286 281 287 292 295 296 291 302 307 307 306 306 309 319 322 323 324 329 331 328 326 325 324 330 331 331 332 331 331 330 326 324 324 324 324 323 323 320 319 319 319 319 319 321 322 321 320 319
280 273 279 284 292 292 294 291 300 306 306 304 305 307 317 319 322 324 326 331 330 329 328 327 329 330 331 332 332 332 331 327 326 325 324 324 324 324 322 321 321 322 322 323 324 323 322 320 317
271 275 279 283 289 289 290 293 298 303 305 305 302 306 314 316 315 317 325 329 330 330 329 329 328 329 330 331 331 331 331 328 327 325 325 325 324 324 323 325 324 325 324 324 324 323 322 319 318
280 279 278 283 290 292 291 293 298 302 304 301 301 309 309 307 309 311 312 320 329 330 329 329 328 328 329 326 325 325 327 327 327 327 327 326 325 325 326 327 327 326 325 325 324 322 320 320 321
281 278 279 287 291 290 291 293 298 301 296 301 306 307 306 304 303 304 307 307 309 327 329 328 328 328 328 328 326 325 326 326 328 329 329 329 328 327 328 328 327 327 326 325 323 322 320 320 321
282 280 282 284 289 292 291 288 292 295 297 301 302 303 303 303 299 300 301 302 304 305 318 326 328 328 329 329 328 326 327 326 327 329 329 330 329 329 329 328 328 327 326 324 324 322 320 318 320
278 285 286 285 286 281 291 281 289 292 293 295 297 298 297 297 298 298 297 298 299 299 305 311 315 321 324 329 327 326 323 323 325 326 328 329 330 330 329 329 328 327 327 325 324 324 322 320 316
283 289 287 286 284 287 287 284 287 291 289 290 291 291 292 293 293 294 295 296 298 298 301 306 308 310 314 317 327 326 325 326 326 326 326 327 329 330 330 329 327 328 327 325 324 323 321 319 319
292 289 287 287 285 280 285 284 285 289 290 288 288 289 291 291 291 292 293 294 294 297 298 301 304 305 308 311 313 318 321 321 320 321 323 325 327 327 326 326 326 326 325 325 324 324 322 322 323
289 284 277 276 277 277 284 280 281 287 292 289 286 286 288 291 291 291 291 291 292 293 296 298 299 299 302 304 306 308 309 311 313 314 315 318 321 318 317 318 316 315 316 316 318 317 314 312 311
285 284 278 272 274 277 282 277 280 288 287 288 287 286 286 286 289 289 290 291 291 292 293 295 295 296 298 299 299 302 303 303 303 303 306 306 308 307 311 309 308 308 308 308 307 305 304 303 302
286 281 287 279 277 276 278 281 285 288 286 286 285 285 285 285 286 287 289 289 291 291 292 293 294 294 295 296 296 297 298 299 298 298 299 299 301 304 303 303 304 303 303 302 301 300 299 299 298
287 288 280 280 273 271 277 279 278 282 285 287 285 285 285 286 286 286 287 288 289 291 291 292 293 293 293 293 294 293 294 294 295 295 295 295 297 299 299 299 300 299 299 299 298 296 295 294 293
283 281 283 282 278 274 274 277 286 284 284 286 288 287 286 286 286 286 287 288 289 290 290 290 291 291 292 292 292 291 291 292 292 292 292 292 293 294 294 295 295 295 296 295 293 292 291 290 289
287 283 283 277 275 278 278 276 286 284 284 285 289 289 288 288 287 287 288 288 288 289 289 290 290 290 290 290 290 290 290 289 289 289 290 290 290 291 291 291 290 290 290 290 289 288 288 287 286
Wind_Speed
6 8 2 4 3 3 4 6 4 6 1 6 2 4 7 5 2 5 7 9 17 16 14 14 18 18 19 17 16 14 13 15 15 15 15 16 18 19 20 18 18 16 17 17 17 16 15 15 14
4 3 4 3 3 3 6 4 10 13 10 9 11 4 2 3 3 7 8 12 20 16 13 13 16 18 19 18 16 14 14 14 15 15 15 17 19 19 21 19 17 15 17 17 16 15 15 14 13
5 3 2 3 4 11 5 7 14 16 5 7 4 5 5 5 2 12 8 17 17 15 13 12 15 19 18 17 16 14 14 14 14 16 17 20 20 20 19 17 16 15 16 16 16 15 14 13 11
4 4 2 4 12 6 7 5 3 6 7 10 5 7 2 3 7 9 16 16 17 14 12 14 17 19 18 16 16 14 14 14 13 15 17 19 19 17 18 16 14 14 15 16 15 14 12 11 10
4 1 4 8 14 4 5 13 14 10 8 11 5 5 3 4 5 19 17 14 15 13 11 13 17 19 17 16 15 14 14 15 14 15 17 18 18 18 18 16 14 14 13 14 14 12 11 10 9
1 1 6 19 18 8 9 12 5 5 10 15 2 7 3 1 16 15 15 13 13 14 11 11 12 15 15 15 14 14 16 16 16 16 17 17 18 18 18 18 15 13 13 13 13 11 10 8 7
5 4 17 17 17 16 15 6 6 6 13 15 7 5 3 2 7 12 14 11 11 13 10 8 9 11 12 11 12 13 15 17 14 16 15 15 15 14 16 17 16 14 13 12 11 10 8 7 5
3 4 17 21 20 21 11 10 2 3 10 4 6 7 6 6 10 12 14 13 10 10 10 11 11 8 8 10 12 13 14 15 14 13 12 12 11 10 10 12 12 14 11 10 9 8 7 5 3
2 7 18 26 22 7 5 9 5 3 5 2 4 4 7 14 14 13 15 12 11 10 12 13 13 8 8 8 9 13 13 14 13 12 12 8 5 6 7 10 12 11 9 9 8 6 5 3 3
7 9 24 6 6 8 11 9 1 3 4 4 4 5 12 20 17 19 17 16 14 15 16 15 14 12 10 8 10 9 8 8 7 7 7 5 5 5 6 8 10 9 8 7 6 5 3 1 2
5 22 11 10 9 8 12 16 4 3 6 6 5 11 14 17 19 17 13 17 16 15 13 15 15 13 12 10 7 5 4 4 5 7 6 5 4 4 4 3 3 3 5 2 2 1 1 1 0
12 18 12 13 17 10 17 6 14 10 8 5 3 11 15 14 17 20 14 14 15 14 14 15 14 12 11 8 7 6 6 4 4 5 6 5 3 4 4 3 4 4 3 3 2 1 2 2 3
15 15 13 13 15 17 15 12 12 14 10 7 11 13 13 15 15 14 14 14 16 15 11 13 14 12 10 10 7 6 6 5 5 5 5 5 5 4 4 4 3 4 3 3 3 2 2 1 1
5 8 14 15 16 8 19 19 5 8 5 7 12 15 16 11 9 10 15 17 17 15 14 13 14 12 12 9 11 8 6 6 4 4 4 7 6 5 5 4 4 4 3 3 3 4 3 2 2
13 13 16 15 11 8 13 22 25 7 5 6 14 13 17 13 13 18 17 16 19 16 14 13 15 14 14 12 10 8 8 7 6 6 6 7 6 6 6 4 4 4 4 5 4 3 2 3 2
4 8 16 11 14 9 9 18 18 9 9 6 14 13 11 8 12 8 12 16 16 14 16 13 12 14 14 12 9 8 8 8 6 6 6 7 7 7 5 4 4 5 4 4 3 3 2 2 2
6 9 11 14 14 7 18 14 14 13 11 7 13 14 9 8 7 7 8 16 18 18 15 14 13 15 14 12 9 9 9 8 7 6 5 7 7 6 5 5 5 7 5 4 3 2 3 2 2
10 11 11 14 9 20 22 22 10 16 15 14 7 16 5 7 3 5 4 10 15 16 14 14 12 14 13 10 8 6 7 7 7 7 7 8 6 7 6 5 5 5 4 4 3 4 4 3 3
10 14 12 17 9 10 25 21 12 14 18 14 8 8 6 6 4 7 10 8 11 15 13 15 14 13 11 7 7 6 7 5 6 5 9 9 8 8 7 4 5 5 5 6 6 3 4 4 1
14 14 19 10 15 15 13 17 17 13 6 9 8 4 6 5 8 8 8 10 12 13 15 12 14 12 8 7 3 3 4 3 7 7 9 9 9 7 7 6 6 7 5 5 5 4 2 3 4
21 21 19 11 12 16 11 6 9 3 8 9 10 6 7 7 6 9 9 7 11 12 4 12 14 13 9 7 3 3 3 3 3 5 6 7 10 8 8 8 6 6 5 5 5 5 6 3 2
21 23 14 18 10 12 16 7 6 13 11 7 12 6 6 7 7 9 11 12 9 14 17 7 6 6 6 9 9 7 7 5 4 3 3 3 5 7 7 5 5 6 5 5 5 4 3 3 3
13 18 18 12 12 5 20 5 9 13 9 10 8 7 6 6 8 10 9 11 10 12 13 7 7 8 6 4 6 7 4 3 3 3 4 4 5 6 6 6 6 7 4 3 4 3 4 3 3
1 2 10 9 6 6 5 4 8 14 13 8 8 9 6 6 9 8 7 12 9 6 11 8 9 9 8 6 7 6 7 5 4 4 3 1 4 4 5 4 3 2 2 2 3 4 5 4 4
8 6 3 6 7 3 4 6 3 8 12 13 9 11 6 7 9 7 11 10 10 14 8 9 11 9 9 8 9 8 7 7 6 4 4 3 2 2 5 4 5 4 4 4 3 3 4 3 3
7 4 3 3 2 4 6 5 4 7 13 16 14 11 9 8 8 9 8 9 6 5 9 7 11 8 12 10 10 8 8 5 6 6 4 3 4 4 4 3 8 5 5 5 5 5 4 5 5
5 4 2 6 2 5 1 3 6 6 11 13 13 9 8 8 7 9 7 10 5 7 10 9 8 10 13 11 7 9 7 9 7 8 6 4 5 5 7 7 6 8 7 5 6 5 5 6 6
1 0 3 3 3 5 3 4 5 2 5 7 8 8 8 6 6 7 6 8 4 8 5 6 9 10 9 10 8 10 9 8 7 7 7 8 7 6 7 7 8 8 6 6 7 6 5 7 4
4 1 1 5 3 4 4 4 6 3 5 7 8 7 7 7 4 6 5 6 5 5 6 6 7 10 8 9 7 10 7 8 7 7 7 7 7 6 6 8 7 6 7 7 7 6 7 8 7
2 2 2 4 1 4 4 4 5 7 7 8 6 7 6 5 3 5 4 5 5 5 6 7 7 10 8 6 9 8 6 4 6 6 5 7 7 5 8 7 7 7 8 7 7 7 6 7 8
Wind_Direction
326 324 54 44 35 66 232 244 293 291 286 216 279 207 171 131 198 208 139 133 133 144 146 152 150 145 140 143 139 139 139 137 137 137 137 140 134 131 123 116 110 110 107 106 104 104 103 106 102
323 298 31 99 154 210 246 220 246 242 224 312 305 174 130 147 132 120 114 153 141 141 147 151 148 146 142 143 140 141 145 139 139 137 134 145 136 132 120 115 109 111 113 110 107 105 103 105 100
314 5 84 212 197 219 231 215 235 254 275 258 280 40 133 165 105 155 133 149 138 141 147 147 147 145 144 144 143 147 147 144 142 131 125 129 129 122 118 110 113 119 115 113 110 107 102 99 91
357 21 346 222 232 241 211 248 195 305 294 257 232 85 47 273 154 137 138 145 136 141 145 147 146 144 144 146 145 149 147 145 140 135 126 121 120 117 108 112 113 116 120 116 114 109 102 94 80
36 32 216 231 235 222 247 237 277 294 287 294 172 188 111 343 129 130 139 142 140 140 145 149 146 143 146 150 150 149 149 145 142 134 125 120 117 115 113 110 109 113 121 123 116 111 103 92 80
177 203 218 234 230 232 246 247 261 263 282 271 85 126 151 4 140 145 138 140 139 138 146 150 135 136 143 153 150 145 148 135 134 131 127 124 123 124 127 120 117 112 103 105 110 110 105 97 83
241 196 230 249 239 223 237 258 216 256 276 274 155 118 153 190 153 140 132 119 131 139 138 140 138 140 142 145 138 139 138 128 124 124 127 124 128 135 138 123 122 118 119 119 118 114 110 104 95
271 241 239 236 240 246 237 249 323 296 278 303 153 169 192 187 160 142 120 124 132 135 141 149 148 146 146 145 133 129 124 121 120 116 114 115 114 114 111 108 119 124 129 127 125 125 125 117 90
49 239 232 228 231 221 225 242 250 286 254 305 322 165 161 131 148 140 132 132 145 145 157 160 157 140 140 134 134 128 128 125 122 117 119 110 112 110 102 116 111 126 133 137 136 133 122 95 35
207 254 235 268 250 213 235 240 167 352 351 315 335 44 143 140 155 158 156 154 156 162 167 163 159 147 143 137 137 134 135 134 131 129 130 120 122 121 115 118 127 134 143 151 149 141 131 70 349
238 242 267 273 292 290 232 245 204 169 262 224 270 184 171 161 154 168 164 164 165 164 167 163 157 152 146 143 136 137 133 132 135 138 130 131 116 116 116 120 127 139 153 151 120 111 158 225 214
253 265 276 283 287 304 247 275 243 207 234 283 323 246 169 171 168 164 165 163 155 161 174 163 158 151 153 142 143 142 139 143 145 154 137 134 129 138 139 141 154 162 171 167 171 201 215 199 203
245 264 273 283 286 292 286 260 227 232 238 298 309 212 216 193 179 165 165 156 149 159 175 166 157 154 152 148 141 144 147 160 158 159 148 148 149 158 149 163 164 178 172 179 208 218 223 207 289
287 270 271 260 259 264 284 264 212 216 199 284 310 201 212 206 190 183 169 160 156 162 176 167 163 156 156 159 154 156 158 160 148 154 170 159 166 159 169 167 177 179 194 194 180 186 179 205 218
260 265 273 260 261 258 304 243 242 206 135 278 293 272 198 190 172 191 179 168 160 171 169 165 163 157 160 165 164 162 168 164 163 167 170 172 168 172 173 177 177 184 186 169 161 154 159 197 179
329 239 252 254 243 240 226 257 239 181 154 228 287 294 205 199 192 193 175 168 157 167 173 158 168 164 164 167 169 167 168 166 169 164 164 182 172 166 161 161 174 170 169 163 186 164 187 200 138
209 250 240 264 226 260 199 247 220 191 165 186 267 283 218 191 158 164 181 160 163 166 165 155 160 167 163 166 168 171 164 162 171 166 169 176 175 173 168 177 178 172 174 171 172 169 181 183 208
215 207 241 247 221 214 241 235 250 190 180 197 252 260 221 126 81 14 226 161 165 157 159 151 155 158 159 158 162 169 156 166 168 176 174 172 174 178 188 180 170 170 164 164 177 185 198 204 206
217 225 219 241 238 289 223 230 225 184 184 175 234 233 112 82 47 31 45 355 170 163 155 154 157 158 155 154 155 159 174 166 168 171 178 174 177 185 191 184 181 169 170 181 186 162 188 238 205
224 231 239 258 258 200 256 239 209 176 174 177 152 143 120 103 55 38 51 29 6 179 170 165 164 158 156 158 145 142 140 159 178 180 179 181 180 183 180 178 184 180 174 184 183 171 172 232 195
210 215 231 225 202 215 205 258 149 133 106 103 81 78 83 99 85 55 44 44 17 341 117 173 179 173 165 148 146 156 113 105 150 180 179 185 187 193 183 184 184 184 174 191 191 188 186 202 212
213 219 246 225 268 210 197 196 178 163 141 132 129 128 113 99 84 70 47 44 29 9 342 65 78 116 133 161 182 174 189 177 185 166 160 178 184 184 190 194 191 210 196 190 203 185 189 150 204
224 189 200 197 232 165 173 193 160 164 139 148 120 108 77 93 85 64 56 55 11 48 326 3 71 74 65 72 154 159 152 111 99 120 178 197 187 181 199 216 210 208 190 191 192 184 199 197 193
142 194 206 174 238 178 187 105 157 175 165 147 137 102 98 94 88 78 74 75 19 24 29 346 38 66 59 73 68 93 116 131 121 96 97 180 180 144 126 126 141 153 147 183 202 205 206 214 228
191 193 167 203 168 149 133 106 51 332 148 145 146 116 105 84 79 60 59 42 34 20 9 20 19 54 68 72 75 75 74 81 84 81 70 51 136 76 83 105 79 61 63 55 58 69 72 54 83
164 262 150 124 84 79 354 55 50 35 74 91 90 93 85 75 75 73 70 72 63 45 32 34 35 26 53 45 52 50 66 72 69 52 72 48 53 51 51 63 84 64 65 66 72 75 72 72 67
156 54 255 110 94 86 87 76 96 56 72 88 104 95 81 65 67 82 67 63 31 53 42 34 33 40 44 47 48 57 49 62 73 55 54 56 42 56 55 57 70 68 59 68 74 71 82 78 75
93 64 101 27 94 102 53 69 73 47 98 117 107 107 96 90 82 77 69 82 39 64 58 40 49 53 59 47 44 52 42 46 63 71 59 51 40 48 66 63 61 61 56 72 82 89 67 89 76
29 86 132 113 74 114 129 79 355 49 138 148 139 141 133 124 122 98 91 74 65 60 73 67 56 56 42 65 58 61 43 46 55 69 68 55 51 46 64 65 69 72 75 63 81 76 89 83 80
280 346 96 118 333 53 66 69 13 69 89 111 113 125 131 129 118 109 93 85 70 57 46 63 57 66 44 51 56 62 53 66 83 75 77 73 58 65 79 75 77 76 72 70 78 86 75 84 78